Location: Vancouver
(49.2827°N, 123.1207°W)
Time: 00:56:22
(UTC-07:00)

Envisat - Pass Details

Date: 27 May 2024
Orbit: 762 x 764 km, 98.3° (Epoch: 19 June)

Event Time Altitude Azimuth Distance (km) Brightness Sun altitude
Rises 03:41:13 0° 23° (NNE) 3,239 8.0 -11.7°
Reaches altitude 10° 03:43:51 10° 35° (NE) 2,308 7.1 -11.4°
Maximum altitude 03:48:12 28° 94° (E) 1,413 4.8 -11.0°
Drops below altitude 10° 03:52:30 10° 152° (SSE) 2,292 5.2 -10.6°
Sets 03:55:06 0° 164° (SSE) 3,213 5.9 -10.3°
